Theta_e
286 286 286 286 286 285 285 285 284 284 283 284 284 284 283 285 285 285 284 283 283 282 282 282 281 281 280 280 280 280 281 281 281 280 279 279 279 279 279 279 279 278 280 278 278 279 279 278 277 277 277 277 277 277 277 277 276 276 277 277 277 276 276 276 276 276 275 275 276 276 276 277 278 279 278 278 277 278 277 277 277 278 277 277 279
286 286 287 286 286 286 285 284 286 285 284 284 284 284 284 284 284 284 284 284 284 282 282 282 281 282 281 281 280 279 280 279 279 280 280 280 279 279 279 279 278 278 279 278 279 278 277 277 277 277 277 277 277 277 277 279 278 277 277 275 276 276 275 276 277 276 274 273 273 273 274 275 277 277 277 277 277 277 277 276 276 276 276 277 278
284 283 284 284 285 285 284 284 283 283 283 283 283 285 285 285 284 283 284 284 284 283 284 283 281 280 280 280 280 279 279 280 279 280 279 279 279 278 278 278 278 278 278 279 278 278 277 277 277 277 277 278 277 276 276 276 276 276 276 275 275 275 276 277 276 276 273 274 274 273 271 272 275 275 275 275 276 276 276 275 276 276 276 277 278
283 283 283 283 284 285 285 284 284 285 285 284 284 284 285 285 283 283 284 284 284 284 286 285 283 283 281 281 280 279 281 282 280 279 278 277 278 279 278 278 278 278 278 278 278 278 278 277 277 277 277 277 276 276 276 275 275 275 275 276 275 273 274 274 277 276 275 273 269 271 269 271 269 271 272 274 274 274 275 275 276 276 277 277 276
283 284 284 284 284 284 283 284 284 284 284 284 284 284 285 283 284 283 284 284 284 285 284 283 283 282 281 280 279 279 279 278 277 279 279 280 280 278 279 278 278 278 278 278 278 278 278 278 277 277 277 277 276 276 276 276 276 276 275 275 275 274 273 274 275 276 275 276 274 271 268 266 267 270 272 272 273 273 273 273 277 276 275 275 276
283 283 282 283 284 284 284 284 284 283 284 284 284 284 284 285 284 284 284 284 285 284 284 283 283 281 280 281 280 280 279 278 279 280 280 280 279 279 278 278 278 278 278 278 278 278 277 278 277 277 277 277 277 276 276 275 275 275 275 275 275 275 274 274 273 277 276 276 276 276 274 270 269 269 272 267 274 273 274 275 274 273 273 275 274
284 283 284 284 284 284 283 284 283 284 284 284 284 283 285 285 285 284 284 285 285 285 284 284 282 282 281 280 280 280 279 279 279 280 279 279 279 278 279 278 278 277 278 278 278 278 278 278 277 277 277 277 277 276 275 275 275 275 276 275 275 276 275 272 273 273 275 275 276 276 276 276 275 272 269 271 269 271 271 272 272 273 273 273 274
283 283 283 283 283 283 283 283 283 284 284 284 284 285 285 284 284 284 284 285 284 284 284 284 283 283 282 282 282 280 280 281 281 281 280 280 279 279 278 278 278 277 277 277 277 277 278 277 277 277 277 277 277 276 276 276 276 276 276 276 275 275 274 273 273 274 272 272 275 274 275 276 275 274 274 271 270 269 271 273 273 274 274 274 274
283 283 283 283 283 282 283 284 283 283 284 284 284 284 284 284 284 283 283 283 283 283 284 283 283 283 282 282 281 282 281 282 282 282 281 280 279 279 279 279 279 278 277 277 277 277 278 278 277 277 276 276 278 277 276 276 275 275 275 275 275 275 275 275 274 273 273 273 273 273 274 274 274 274 274 273 270 269 269 271 271 273 272 273 273
283 283 283 282 282 282 283 283 283 283 283 284 284 284 283 282 283 282 281 282 282 282 282 282 282 282 281 281 281 281 282 282 281 280 280 280 279 280 279 279 278 278 277 277 277 277 277 277 277 277 277 276 278 276 276 276 275 275 275 275 275 274 275 275 274 274 274 274 274 274 272 272 272 271 271 271 272 272 269 270 271 271 270 272 273
282 282 282 282 283 283 283 283 283 283 283 282 283 283 283 282 282 281 281 281 282 281 281 281 281 281 281 280 280 280 281 281 280 280 281 280 280 280 279 279 279 278 278 277 277 277 277 277 276 276 277 277 277 276 276 276 275 275 275 275 275 274 274 274 275 275 275 274 274 274 273 273 271 270 270 271 271 269 270 270 271 272 271 271 273
282 282 282 283 284 284 284 283 283 283 283 283 282 282 282 281 281 280 280 280 281 281 280 280 280 280 280 279 279 280 280 280 280 279 280 281 281 281 282 280 278 278 277 277 277 277 277 276 277 276 276 276 276 276 276 276 276 275 275 275 274 274 274 275 274 273 273 274 274 274 274 274 274 273 273 273 271 271 271 270 270 271 271 271 273
283 283 283 283 282 283 283 283 283 282 282 282 281 281 280 280 280 279 279 279 279 279 279 279 278 278 279 279 279 280 279 279 279 280 281 281 281 281 281 280 280 279 278 277 278 277 277 277 276 275 275 276 276 276 276 276 275 275 274 274 274 274 274 274 273 273 273 273 273 274 274 274 274 274 274 273 273 272 271 270 271 271 269 271 270
282 282 283 283 283 283 282 282 282 281 281 280 280 280 279 279 279 279 278 278 278 278 278 277 278 278 278 278 278 278 278 279 279 280 280 281 281 281 280 280 279 279 279 279 279 278 278 277 277 276 275 275 276 276 276 276 275 275 274 274 274 274 274 274 274 274 274 274 274 273 273 274 274 274 274 274 273 272 270 270 269 270 269 269 271
281 282 283 283 283 282 282 281 280 280 279 279 279 279 278 278 278 277 277 277 276 276 277 277 277 276 276 276 277 277 278 277 277 278 278 279 280 280 280 280 279 279 280 280 281 280 279 278 277 276 275 275 276 276 277 276 276 275 275 274 274 274 274 274 274 273 273 273 273 273 273 274 274 274 274 274 274 273 272 271 270 268 268 269 268
282 282 283 283 282 281 280 280 279 279 279 278 278 278 278 277 277 276 275 275 275 276 276 276 275 275 275 276 276 275 275 275 275 276 276 277 277 278 279 279 280 281 281 281 281 280 279 279 278 276 276 275 276 276 276 276 275 274 274 274 274 275 274 273 273 273 273 273 273 273 273 273 274 274 274 274 274 274 273 272 271 270 267 266 268
282 283 282 281 280 280 279 278 278 278 278 278 277 277 277 276 275 274 274 274 274 274 274 274 274 274 275 274 273 273 273 273 274 274 275 276 276 277 278 278 280 280 279 279 279 278 278 277 277 276 276 276 276 276 276 275 275 274 274 274 274 274 274 273 273 273 273 273 273 273 273 273 273 274 274 274 274 274 274 273 273 271 270 267 266
282 282 281 280 279 279 278 279 278 278 277 276 276 276 276 275 274 274 273 273 273 273 273 273 273 274 273 272 272 272 272 273 273 274 274 275 275 276 277 277 277 277 277 277 277 277 277 277 277 276 277 276 276 276 275 275 275 274 275 274 274 274 273 273 273 273 273 273 273 273 273 272 273 273 273 274 274 274 273 273 273 272 272 269 268
281 280 279 278 278 278 278 278 277 277 277 276 275 275 275 274 274 273 272 272 272 272 273 273 273 272 271 271 270 271 272 273 273 274 274 274 275 276 276 276 276 276 276 276 277 277 277 277 276 276 276 276 276 275 275 275 275 274 274 274 274 274 273 272 273 273 273 273 272 272 272 272 273 272 273 274 274 274 273 273 272 273 271 270 269
279 278 277 277 278 278 277 277 276 275 275 275 274 274 273 273 272 271 271 271 271 272 272 272 271 270 270 270 270 271 272 272 273 273 274 274 272 272 272 273 273 273 273 274 275 276 276 276 276 276 276 276 275 275 275 275 275 274 274 274 274 273 272 272 272 272 272 272 272 271 271 272 272 272 272 272 273 273 273 272 272 271 271 270 270
278 277 277 277 277 277 277 276 276 275 274 274 273 272 272 272 271 270 270 270 271 272 271 269 269 269 269 269 270 271 272 273 271 271 270 271 271 271 270 270 271 270 270 271 271 272 274 275 276 276 276 276 276 276 276 276 275 274 274 274 273 273 272 272 272 271 272 272 271 271 271 271 272 271 272 272 272 272 272 272 272 271 270 270 269
276 277 277 277 277 276 276 275 274 273 272 272 272 272 271 270 270 269 270 270 271 269 268 268 268 268 269 269 270 272 271 269 269 268 268 268 268 267 267 268 267 268 268 268 268 269 270 272 274 275 275 275 276 276 276 276 275 274 273 273 273 272 271 271 271 271 271 271 271 270 271 271 272 271 271 271 272 272 271 271 271 270 270 270 270
277 277 277 277 276 275 274 273 272 271 271 270 270 270 270 269 269 269 269 270 269 268 268 268 268 268 269 270 269 267 267 267 266 266 266 266 265 265 266 266 265 265 266 266 266 267 268 269 271 272 273 274 274 274 274 274 274 273 273 272 272 271 271 270 270 271 271 271 270 270 270 271 272 271 271 271 272 271 272 271 270 271 270 270 270
277 277 276 276 275 274 273 271 271 270 269 269 269 270 269 268 268 269 269 268 267 267 267 267 267 268 269 267 266 266 266 266 265 265 264 264 263 263 264 264 264 264 264 265 266 266 267 268 269 270 271 272 273 272 272 272 272 271 271 271 271 271 271 271 271 270 271 271 270 270 270 270 271 271 271 271 272 272 271 271 270 270 270 270 270
276 276 275 274 273 271 271 270 269 269 269 268 269 268 268 268 268 268 268 267 266 267 266 267 267 267 266 265 264 264 264 264 264 264 263 262 262 262 263 263 263 263 264 265 266 267 268 267 267 267 269 271 272 272 271 271 271 271 271 271 271 271 271 271 271 271 272 271 270 270 270 270 271 270 271 271 271 271 271 271 270 270 270 270 270
276 274 273 271 271 270 270 269 269 268 268 268 268 268 267 267 267 267 266 266 266 266 266 266 267 264 264 263 263 263 263 263 263 262 262 262 262 262 262 263 263 262 263 263 264 264 264 264 265 265 266 267 270 272 271 271 270 271 271 271 270 270 270 270 270 271 271 271 270 270 270 271 270 270 270 270 271 270 271 270 270 270 270 270 269
274 272 271 271 270 269 269 268 268 268 267 268 267 267 267 266 266 266 265 265 265 265 265 267 264 263 262 262 262 262 262 262 262 261 261 261 261 261 262 261 262 261 261 261 262 262 262 262 263 264 265 266 268 270 270 270 270 270 270 270 270 270 270 270 270 271 271 271 271 271 270 270 270 270 270 270 270 270 270 270 270 269 270 269 269
272 270 269 269 268 268 268 267 267 267 267 267 267 267 265 265 264 264 264 264 264 264 265 264 263 262 261 261 261 262 261 261 261 261 260 260 260 260 261 261 261 260 260 260 261 261 261 262 263 263 265 266 267 268 269 270 270 270 269 269 270 270 270 270 270 271 271 270 270 270 270 270 270 270 270 270 270 270 270 269 270 269 269 268 268
270 269 269 268 267 267 267 266 266 266 266 265 266 265 265 264 264 263 263 263 263 264 264 263 262 260 260 260 261 261 261 260 260 260 259 259 259 260 260 260 260 260 260 260 261 261 261 262 262 264 265 268 269 270 270 270 270 269 269 269 270 270 270 270 270 270 270 270 269 269 270 270 270 272 272 272 272 272 270 269 269 269 268 268 268
269 268 268 267 267 266 266 265 265 265 264 264 264 264 263 263 262 262 262 262 263 263 263 262 260 260 260 260 260 260 259 259 259 258 258 259 259 258 258 258 259 259 260 260 260 261 261 261 262 264 265 265 265 266 268 272 273 270 270 270 270 270 270 270 269 269 269 269 268 269 269 271 272 272 272 273 273 273 273 271 269 269 268 268 268
268 268 267 266 265 265 265 264 264 264 264 264 264 263 263 262 262 261 261 262 262 263 262 260 259 259 259 259 259 258 258 258 258 258 258 258 258 258 258 258 258 258 259 259 260 260 260 261 261 262 262 262 263 265 270 273 274 275 273 271 270 270 269 269 269 268 268 267 268 268 268 270 271 271 271 272 273 273 274 274 274 273 272 269 267
267 267 265 265 264 264 263 263 263 263 263 263 263 263 262 261 261 260 261 261 262 262 260 259 259 259 258 258 258 258 257 257 257 257 257 257 257 257 257 257 257 257 258 259 259 259 260 260 260 261 262 263 264 268 272 273 274 275 275 272 271 269 269 268 268 267 267 268 268 267 267 267 268 269 269 269 271 272 273 273 274 274 274 274 273
266 265 264 263 263 263 263 263 263 263 262 262 263 262 261 261 260 260 260 260 260 260 259 258 258 258 257 257 257 257 256 256 256 256 256 256 256 256 256 256 256 257 258 258 259 259 259 260 260 260 261 263 264 270 272 273 274 275 275 274 271 270 269 268 267 267 267 267 267 267 267 267 267 270 270 269 268 268 271 272 272 273 273 274 275
266 265 263 263 263 263 263 263 263 263 263 262 263 262 261 261 260 260 260 259 260 259 258 258 257 257 257 257 257 256 256 255 256 256 256 255 255 255 256 256 257 257 257 258 258 259 259 259 260 260 261 263 265 269 272 273 274 274 275 274 271 270 269 268 267 267 268 268 268 267 267 266 267 268 268 268 267 267 267 267 268 269 269 270 272
265 263 263 263 262 262 262 262 262 262 262 262 261 261 260 260 259 259 259 259 259 258 257 257 256 256 256 256 256 255 255 255 255 255 255 255 255 255 255 256 256 257 257 257 258 258 259 260 260 261 262 264 265 271 272 273 273 274 275 274 271 270 269 268 268 268 268 268 267 267 267 267 267 267 267 268 267 267 266 266 266 267 267 268 269
264 263 262 262 262 261 261 261 263 262 261 261 260 260 259 258 259 258 258 258 258 257 257 256 256 256 256 256 255 255 255 254 255 254 254 254 255 255 255 256 256 257 258 258 258 259 259 259 261 262 263 265 266 271 272 272 273 274 274 271 269 269 269 268 268 268 268 268 267 267 267 267 267 267 268 271 270 268 266 266 265 266 266 267 268
264 264 263 263 263 262 262 262 261 261 260 260 260 259 258 258 257 258 258 257 257 256 255 255 255 255 255 255 255 255 254 254 254 254 253 254 254 254 255 256 256 257 257 258 258 258 260 261 262 263 264 264 265 268 271 272 272 273 272 270 269 268 268 268 267 268 268 267 267 267 267 266 266 266 269 271 272 271 268 266 265 265 266 266 266
264 263 263 263 262 262 262 262 260 260 260 260 259 258 257 257 257 257 257 256 256 255 255 255 255 255 255 255 255 254 253 253 253 253 253 254 254 255 255 257 256 256 257 258 259 260 261 263 263 263 263 264 264 267 270 271 272 272 271 269 269 267 267 266 266 266 267 267 267 269 268 266 266 266 270 271 272 271 268 267 266 265 265 265 265
263 262 262 261 261 261 261 261 260 259 259 259 258 257 257 256 256 256 256 255 254 254 255 254 254 255 255 255 254 254 253 253 253 253 253 253 254 255 256 257 257 257 258 259 260 261 262 262 262 262 265 264 264 265 269 270 271 271 270 268 268 268 266 266 265 265 266 266 266 268 270 268 267 267 271 272 272 271 268 268 267 266 265 264 266
263 263 262 261 261 260 259 259 259 259 259 258 258 257 256 255 255 255 255 254 254 254 255 255 255 255 255 254 254 253 253 253 253 253 253 254 255 256 256 257 257 258 259 260 260 260 260 260 262 262 263 263 263 264 265 269 270 271 271 269 268 267 266 266 265 265 265 265 266 266 268 271 272 271 271 272 272 273 269 268 268 267 265 265 267
262 262 263 260 260 259 259 259 259 259 258 258 257 256 255 255 255 254 254 254 255 255 255 255 255 254 254 254 254 253 253 253 253 253 254 255 255 256 257 257 257 258 258 258 258 259 260 260 262 262 262 263 263 263 264 268 269 270 270 270 267 267 267 267 266 266 265 265 265 265 266 268 271 272 273 273 273 273 273 270 269 268 268 269 270
262 263 261 260 259 259 259 258 259 258 258 257 256 255 254 254 254 253 254 255 255 255 254 254 254 253 253 253 253 253 253 253 253 254 254 255 256 256 256 257 258 258 257 257 258 259 260 261 261 262 262 262 263 264 263 266 268 269 270 270 267 267 268 267 266 265 265 265 265 266 266 268 270 271 272 273 273 274 274 272 271 273 273 273 271
260 260 260 259 258 258 258 258 258 258 258 257 256 254 254 254 253 254 255 255 254 254 254 254 253 253 252 252 252 252 252 253 253 254 255 255 256 256 256 257 257 256 256 256 257 259 260 260 261 261 262 262 262 263 264 264 266 268 269 269 270 269 270 269 266 265 265 265 266 266 267 269 271 272 272 273 273 273 273 272 275 275 274 274 273
261 260 259 259 258 258 257 257 258 257 257 256 255 253 253 253 253 255 255 254 254 254 253 253 252 252 252 252 252 252 252 253 253 254 255 255 255 255 256 256 256 256 256 257 258 259 259 260 260 260 261 262 262 262 263 265 264 267 268 269 270 270 270 268 268 266 266 266 266 266 267 270 271 272 272 273 273 273 272 274 275 275 275 275 273
259 259 259 258 257 256 257 256 257 257 256 255 255 253 253 253 254 255 254 253 253 253 252 252 251 251 251 251 251 252 252 253 254 255 254 255 255 255 255 256 256 256 257 257 258 259 259 260 260 260 261 261 262 262 262 263 265 266 268 269 269 270 270 270 268 267 267 267 268 270 271 271 271 272 272 272 272 273 274 274 274 275 275 273 273
259 259 258 258 257 257 256 255 256 256 255 255 254 254 253 253 254 254 254 253 253 252 251 251 251 251 251 251 251 251 252 253 254 254 254 255 255 255 255 256 256 257 258 258 259 259 260 261 261 261 261 261 261 262 262 262 264 265 265 267 269 269 268 269 269 268 269 270 271 271 272 271 271 271 270 270 270 271 273 274 274 274 273 273 273
258 258 258 257 256 255 255 255 254 255 255 254 254 254 254 254 254 254 254 253 252 251 251 251 250 250 251 251 251 251 253 253 254 254 254 255 255 255 256 256 257 258 258 259 260 260 261 262 262 262 261 261 261 262 262 262 263 263 263 264 265 265 267 268 268 268 269 269 270 270 270 270 270 271 271 272 272 273 272 273 272 272 273 273 273
258 258 257 256 256 255 254 254 254 254 254 254 254 253 254 254 254 254 253 252 251 251 251 250 250 250 251 251 251 253 253 253 253 254 254 254 255 256 256 257 258 259 259 259 260 261 262 263 263 262 261 261 261 261 262 262 263 263 264 264 264 264 264 264 265 267 268 269 269 270 270 270 269 269 269 268 268 268 268 268 268 269 269 271 273
257 257 257 256 255 254 254 254 253 254 254 253 253 254 254 254 254 253 253 251 251 251 251 250 250 250 250 251 252 252 252 252 253 254 254 255 255 256 257 258 260 261 261 261 262 263 264 264 264 264 262 261 261 262 263 267 267 269 268 267 265 264 264 264 267 269 268 268 268 268 267 266 266 266 266 266 266 266 265 266 266 266 266 267 267
258 258 257 256 255 254 254 253 253 254 253 253 253 253 253 254 253 253 252 251 251 250 250 250 250 250 250 251 252 252 252 252 253 253 253 254 257 260 260 259 259 262 264 267 267 264 264 265 265 265 265 262 261 263 269 271 272 273 272 271 270 269 269 267 268 270 270 266 266 265 265 265 265 265 264 264 264 264 264 264 265 266 265 264 263
257 256 255 255 254 254 253 253 253 253 253 253 252 253 253 253 253 253 252 251 250 250 250 250 250 250 251 251 251 251 252 252 253 253 253 253 254 256 262 264 263 263 264 266 267 268 268 269 266 265 266 269 270 270 272 272 272 272 272 271 271 271 270 270 271 269 266 265 265 263 263 262 262 262 262 261 261 262 262 262 261 261 261 262 261
Wind_Speed
1 4 5 5 5 4 4 5 5 6 5 6 6 6 6 5 5 6 4 4 4 4 4 3 3 5 2 3 5 4 5 4 5 5 4 6 6 6 6 6 6 6 6 5 7 7 7 7 7 7 6 6 7 9 8 8 7 6 6 5 7 8 7 5 6 4 7 9 8 9 9 8 10 11 12 11 11 9 8 8 7 7 7 6 7
5 6 5 5 4 4 5 5 6 7 6 6 7 5 5 5 5 4 4 5 5 4 3 3 2 3 3 6 4 5 6 5 6 6 6 5 5 5 6 5 6 7 7 6 7 7 7 7 7 8 6 7 7 7 6 7 7 7 5 6 5 7 7 5 6 2 5 6 9 8 7 6 10 11 11 10 10 8 7 7 7 7 7 7 6
6 5 5 4 4 6 6 7 6 6 5 5 4 5 6 5 4 4 4 5 5 4 3 4 3 3 2 4 4 5 4 6 5 6 4 5 6 6 6 6 6 6 7 7 7 7 8 8 8 8 7 7 6 7 7 8 7 8 7 7 8 5 6 5 6 5 7 4 3 7 9 8 2 2 5 6 7 7 6 7 7 7 8 7 6
7 5 5 5 6 6 8 7 6 6 6 5 5 5 4 5 4 5 5 6 6 6 4 5 5 5 4 5 5 4 6 4 4 4 5 4 7 6 6 6 6 7 7 7 7 7 8 9 8 7 8 6 7 8 7 8 7 7 7 7 6 8 6 6 5 6 6 5 6 6 3 3 10 3 3 5 4 6 5 6 4 6 6 5 3
7 7 7 7 9 7 6 5 6 7 5 4 4 4 3 4 5 5 6 7 6 7 8 6 6 6 5 4 3 4 3 4 4 7 7 6 5 5 9 6 7 7 7 8 7 9 8 8 8 9 8 8 7 7 8 10 8 7 8 7 8 8 10 6 4 5 7 7 8 5 4 2 5 5 5 6 1 2 2 1 2 3 3 3 4
7 6 5 7 8 7 7 7 6 4 4 3 2 3 5 5 6 7 7 7 8 8 9 8 7 8 7 6 8 6 7 6 7 8 8 7 8 5 5 6 6 6 7 8 8 7 8 9 8 8 8 8 7 8 8 7 8 9 9 8 8 9 9 8 7 4 7 8 9 9 8 7 4 3 7 7 1 3 5 5 4 2 1 1 2
7 7 8 9 8 9 6 5 4 4 3 3 3 5 6 7 7 6 7 8 8 9 10 9 9 9 9 8 8 8 9 7 6 8 8 8 7 7 8 7 7 8 8 8 8 8 8 8 9 9 9 8 8 7 8 9 10 9 8 7 9 8 6 9 10 8 6 7 7 9 10 10 9 7 8 6 11 3 1 4 3 3 2 3 4
6 7 7 7 7 6 5 3 4 4 4 5 5 7 9 8 8 9 8 9 9 9 10 9 9 9 11 11 10 9 9 12 10 10 7 6 8 9 8 8 8 7 8 8 9 9 8 9 9 9 9 9 8 8 10 10 8 8 8 9 8 7 9 9 10 8 7 7 5 8 10 10 11 10 10 10 9 12 13 6 4 7 6 6 6
6 8 8 6 6 5 4 6 4 4 6 6 6 6 7 9 9 7 9 8 9 9 10 10 10 10 10 10 11 10 10 11 10 9 9 9 9 9 8 9 8 8 8 9 9 9 9 9 9 8 8 9 8 8 9 9 10 10 9 9 9 10 9 9 8 8 7 9 7 7 8 8 8 8 10 9 9 10 14 12 11 5 4 7 5
7 8 6 5 4 4 2 3 6 6 5 6 8 8 8 6 7 8 11 7 7 9 9 10 10 9 10 10 12 12 10 11 10 11 10 10 11 11 9 8 9 8 8 9 9 9 10 9 9 9 10 9 8 9 9 9 9 10 11 10 10 10 8 9 10 10 9 9 9 8 7 7 6 6 6 7 9 11 14 12 6 8 10 5 4
6 6 5 4 2 4 6 8 5 6 6 6 7 7 6 8 9 11 10 8 9 11 10 11 10 10 10 11 11 13 13 12 12 12 11 11 11 11 9 9 8 9 9 8 9 10 10 9 9 10 9 9 9 9 10 10 10 10 10 10 10 11 10 10 11 11 9 9 10 9 10 10 10 10 9 7 8 9 9 13 11 9 12 13 7
5 5 5 5 6 7 6 7 6 6 7 9 8 8 9 10 11 12 11 11 12 12 13 13 12 13 11 12 13 13 13 12 13 14 13 13 13 12 11 9 8 9 8 8 9 9 9 9 9 9 9 9 10 10 10 10 10 9 9 9 10 11 10 10 10 11 12 10 10 9 10 11 11 11 10 8 8 10 10 12 11 4 7 9 7
5 4 4 4 5 6 7 6 6 8 7 9 10 10 10 11 11 12 13 13 13 13 14 14 13 12 12 12 12 12 13 14 13 13 13 12 11 12 12 11 11 10 9 9 10 10 9 9 9 9 9 10 11 10 10 11 10 9 9 10 11 11 11 12 11 13 12 11 11 10 10 10 11 10 9 10 8 8 9 11 11 6 10 9 4
4 4 5 5 6 5 6 7 7 8 8 10 11 11 11 11 11 12 13 13 13 13 14 13 12 11 12 14 14 13 13 13 12 12 13 11 11 12 12 11 11 11 11 10 9 9 9 10 11 11 11 11 11 12 12 11 11 10 11 11 12 12 11 12 13 13 12 13 10 9 9 9 11 10 10 10 10 8 9 11 10 6 5 10 5
3 4 4 4 5 5 6 8 7 7 8 9 9 10 10 10 11 12 14 14 14 15 13 13 13 14 14 13 12 11 13 15 14 14 14 15 14 13 12 11 10 10 10 10 11 11 11 11 11 11 11 11 12 11 11 12 11 10 10 11 11 10 11 12 12 13 13 13 12 11 10 10 10 10 9 10 9 10 9 8 7 10 10 8 9
2 3 5 6 6 6 6 6 5 5 6 8 11 12 13 12 13 15 15 16 15 16 14 14 15 13 14 12 14 17 15 13 11 11 12 14 14 14 13 12 10 11 11 12 12 12 12 12 12 12 12 11 12 13 13 11 10 10 10 10 12 9 11 14 13 12 13 14 13 12 10 11 10 10 10 10 10 9 8 6 7 8 10 12 8
1 5 5 5 5 4 4 4 5 7 10 11 13 14 14 15 15 16 15 13 15 15 15 14 14 13 11 12 15 16 16 15 14 15 14 13 13 13 13 13 12 10 12 12 13 12 11 11 12 12 11 12 13 12 11 11 10 10 10 11 12 11 11 13 12 11 12 12 11 13 11 11 10 9 9 9 9 8 8 7 7 9 8 9 11
4 3 3 3 3 3 3 5 7 10 11 13 15 12 11 12 13 15 15 18 17 16 15 14 14 12 14 16 15 14 13 14 13 14 14 13 12 11 11 11 11 11 11 12 12 13 12 12 10 11 12 11 11 11 10 10 10 9 10 11 11 11 11 10 11 11 12 10 11 11 10 10 9 8 9 10 8 8 8 8 8 8 8 11 10
2 3 3 3 4 3 4 8 9 10 11 13 13 12 12 12 12 13 17 16 16 14 13 11 10 12 13 15 16 14 13 12 13 13 13 13 12 12 12 12 13 13 14 14 14 13 13 12 11 11 9 9 8 8 8 8 9 9 9 10 10 10 11 12 11 11 11 10 11 12 11 10 9 8 9 9 8 8 8 8 8 8 8 9 10
2 2 2 3 4 5 8 10 12 13 13 13 12 12 14 12 13 16 15 14 12 13 11 12 13 13 13 14 13 12 12 13 13 15 15 14 16 18 17 16 16 15 15 17 17 17 16 15 13 12 11 10 10 9 8 9 9 9 10 10 10 11 12 12 11 11 10 10 11 12 12 10 8 7 8 7 8 8 8 8 8 8 9 8 8
2 3 4 5 6 8 10 10 12 12 11 11 12 13 11 12 16 16 16 16 15 12 14 14 15 13 16 15 14 13 14 13 17 16 15 16 15 15 15 16 16 16 16 18 18 19 18 17 17 15 13 12 12 12 10 10 10 11 10 11 11 11 12 12 11 12 11 11 11 11 11 10 8 8 8 7 8 8 8 8 7 7 8 7 7
2 5 6 7 8 10 11 12 12 12 11 13 13 11 12 15 14 14 14 13 12 14 15 15 12 13 14 14 14 14 17 16 17 17 17 17 16 17 18 18 17 17 17 19 19 18 18 19 17 16 14 13 13 13 12 11 11 11 11 9 10 11 12 13 12 13 12 10 10 11 11 9 8 9 8 8 8 8 8 8 9 8 9 8 7
4 6 7 8 10 11 11 12 12 11 11 13 11 10 12 14 14 13 13 11 13 14 14 13 13 13 15 13 17 18 18 18 18 15 16 16 16 17 16 17 16 16 16 16 17 19 18 18 18 16 15 13 13 12 11 10 10 11 11 11 10 11 12 13 13 13 12 10 10 10 10 9 7 8 9 9 8 9 8 9 10 8 9 9 8
4 6 7 8 8 9 9 11 11 11 11 13 12 11 13 13 14 12 12 13 15 14 13 14 14 13 14 16 17 18 17 15 16 14 15 16 17 16 15 16 16 15 17 17 16 17 17 16 16 16 16 15 14 12 10 9 11 11 11 12 12 12 12 12 13 12 11 11 11 11 10 9 8 9 9 9 8 8 8 9 9 9 9 9 9
5 7 8 9 9 10 10 10 10 12 12 13 12 11 13 13 12 14 14 14 14 13 14 13 13 14 15 16 18 16 16 16 16 15 17 16 17 16 15 16 16 16 16 17 17 15 16 17 17 19 19 17 15 13 11 10 9 10 11 12 13 12 12 13 13 12 11 12 11 11 10 9 9 10 9 9 8 10 9 9 9 8 8 8 7
6 9 9 10 9 9 11 12 12 11 13 11 10 11 12 12 12 13 14 15 14 13 14 14 12 14 16 18 17 16 16 17 17 17 17 17 16 16 16 15 15 19 19 18 18 17 15 18 17 18 18 20 19 13 11 11 11 11 12 12 12 13 13 13 12 12 11 11 11 11 10 9 10 10 9 9 9 10 9 9 9 8 8 7 8
9 8 9 9 10 13 14 13 12 12 12 10 11 13 11 13 15 14 13 14 14 14 15 13 12 13 15 16 17 17 17 17 17 16 16 16 17 17 17 17 16 17 18 18 17 17 17 18 19 19 19 19 19 17 15 14 13 13 13 13 13 14 14 12 12 11 10 10 10 10 10 9 10 10 10 10 9 10 9 10 9 9 8 8 8
9 10 11 12 13 13 13 13 13 12 12 13 13 12 14 14 15 15 15 14 14 15 14 11 13 14 15 16 16 16 16 17 16 16 16 17 17 17 17 17 17 18 19 18 18 18 17 15 15 16 16 16 17 17 15 15 15 13 12 12 13 14 13 13 11 10 10 10 10 9 9 9 10 10 9 9 9 9 8 9 8 7 8 8 8
10 10 11 12 13 14 14 14 13 13 14 15 14 14 14 13 13 14 14 15 15 15 11 10 13 14 15 16 16 15 15 16 17 17 18 18 18 18 18 17 17 18 16 17 18 18 14 16 13 16 17 17 13 11 11 11 10 11 11 14 15 14 13 12 11 10 9 9 8 8 8 8 9 12 14 12 11 10 8 8 8 7 8 8 8
10 11 12 13 13 14 14 15 14 14 14 15 13 13 12 14 14 15 15 14 14 15 11 12 14 15 16 16 16 16 16 17 18 19 18 18 18 18 18 17 18 17 17 15 16 14 15 15 17 17 17 15 15 12 18 29 26 19 16 14 13 13 12 11 11 10 9 8 8 7 7 12 14 15 16 17 18 18 17 11 8 8 9 8 8
13 12 12 11 12 12 13 13 13 13 14 13 11 12 12 13 13 14 14 14 15 15 13 13 16 16 16 16 16 16 16 18 18 18 18 18 19 16 15 16 15 15 14 16 15 15 15 16 17 14 15 13 14 13 27 28 28 30 21 15 12 11 11 11 10 10 9 8 7 7 6 9 11 13 14 18 19 20 21 21 20 18 14 11 9
11 9 10 11 13 12 13 13 13 14 13 12 14 12 12 13 14 14 14 14 14 14 13 12 12 14 16 15 13 15 14 14 17 18 16 15 15 14 14 15 14 15 15 13 13 15 13 13 12 14 15 15 15 22 30 27 27 27 24 17 10 10 10 9 9 9 8 8 8 8 7 6 7 8 7 8 13 19 21 22 23 22 22 23 20
12 10 11 11 12 12 14 13 12 12 12 13 14 12 11 13 14 15 14 13 14 13 11 13 14 12 14 13 15 13 15 15 15 12 14 14 14 15 15 13 16 15 14 13 14 16 15 14 14 15 16 15 16 23 27 27 26 26 27 24 10 10 10 10 9 9 9 9 7 7 7 6 7 13 11 8 8 8 14 19 21 22 19 17 23
11 9 10 11 11 10 12 13 12 11 12 13 12 11 12 13 14 14 15 15 13 13 13 14 15 14 15 15 13 15 15 15 13 16 14 15 14 16 15 13 13 12 14 16 15 17 14 15 14 15 15 16 17 22 28 27 26 26 25 22 9 9 10 10 10 10 9 9 9 8 8 8 7 8 7 8 7 7 7 8 9 10 9 11 12
10 10 11 11 11 12 13 13 11 11 11 11 11 11 12 12 13 14 15 15 13 14 13 14 13 15 15 15 14 15 14 14 16 15 14 15 14 16 14 14 13 13 14 13 14 14 14 15 14 14 14 16 15 26 26 26 24 23 24 19 8 5 8 9 10 10 10 9 9 9 9 9 8 8 7 9 8 7 7 7 8 9 10 9 8
9 9 10 11 12 13 13 13 11 11 11 10 13 12 12 12 12 12 12 12 13 12 12 12 14 14 12 14 15 17 15 16 16 13 15 16 16 14 16 15 12 13 11 12 14 13 15 14 15 16 15 14 14 26 26 24 23 21 22 10 2 4 6 7 8 8 8 8 7 8 8 8 8 8 11 17 14 9 9 9 9 9 9 10 9
7 8 10 9 10 12 14 13 11 11 12 12 12 12 12 13 11 11 11 13 12 11 11 14 13 15 14 14 15 15 17 17 13 16 16 14 16 16 14 12 14 13 14 14 13 13 13 14 16 13 14 15 13 20 25 23 21 21 16 6 2 3 4 5 6 7 7 7 8 8 8 8 9 8 12 17 17 15 8 10 10 10 9 8 10
8 8 8 9 11 11 12 12 12 12 11 10 11 12 13 12 12 12 13 12 12 11 13 14 14 13 15 15 13 14 16 15 16 15 15 15 14 13 13 13 13 16 14 15 12 13 13 12 12 14 14 14 13 18 24 22 21 21 16 8 4 3 5 5 5 6 6 6 8 15 13 9 9 8 14 18 18 14 9 8 9 11 11 10 10
8 9 10 10 11 11 11 10 10 11 11 11 12 12 11 11 12 12 12 11 12 14 14 14 14 15 13 12 12 14 12 15 14 15 14 17 15 15 13 13 12 12 15 15 15 14 13 13 13 14 18 18 13 15 22 22 22 20 15 7 6 2 3 4 4 5 5 6 6 10 17 13 10 11 17 18 20 16 10 9 7 9 11 12 9
9 8 7 9 11 12 12 11 11 11 11 11 10 10 12 12 12 11 11 12 13 15 15 14 14 14 12 13 13 14 15 13 16 16 15 13 13 12 13 13 14 13 13 14 15 15 16 14 13 12 11 12 12 11 14 22 21 20 19 10 5 4 2 3 4 4 5 5 6 6 11 18 19 19 20 21 20 21 12 9 8 9 10 12 7
10 8 8 9 9 9 11 13 11 12 12 10 9 10 11 11 11 10 11 12 14 13 13 13 15 13 14 14 13 12 16 15 13 12 13 14 12 14 15 15 15 13 14 14 16 15 15 14 13 12 11 11 10 11 12 20 20 20 19 15 6 5 3 2 4 6 5 6 6 6 6 13 18 19 19 20 21 21 18 11 11 9 9 9 9
8 8 8 9 9 9 11 11 11 12 12 11 11 12 12 11 11 12 13 13 13 13 13 14 14 15 14 13 13 15 13 13 13 14 13 13 12 12 12 14 12 12 15 16 15 14 12 12 12 12 10 10 10 14 11 15 19 19 18 18 9 5 6 4 5 5 5 5 6 6 6 11 18 19 19 20 21 20 21 11 11 16 17 19 13
10 8 8 8 9 10 10 11 10 10 11 11 11 12 12 12 12 13 12 13 12 14 14 15 14 15 15 14 14 15 15 12 13 13 14 15 14 14 14 13 13 14 15 16 15 13 13 13 11 10 9 8 8 8 14 12 16 18 18 16 16 11 13 8 6 7 7 6 5 6 7 14 17 19 20 20 20 21 18 12 19 18 19 20 17
8 8 9 10 10 10 10 11 11 11 10 10 10 12 12 13 14 12 12 12 13 13 13 13 14 15 15 14 15 15 14 13 13 13 13 14 15 14 12 12 13 13 12 13 12 13 13 12 12 11 10 8 7 6 10 15 13 17 16 16 15 15 14 7 5 5 6 6 6 7 7 16 18 19 20 19 18 18 12 16 17 19 20 19 10
10 10 10 9 10 12 12 12 11 12 11 10 9 12 14 15 13 12 12 12 14 14 13 14 15 13 14 14 14 13 14 13 13 13 13 13 14 13 13 13 13 12 11 12 12 13 13 12 12 11 10 9 7 6 7 10 15 15 16 15 14 13 13 12 8 3 6 6 10 14 16 16 16 17 18 17 15 17 19 18 18 18 18 10 10
9 10 11 10 10 10 10 13 13 11 11 10 10 10 14 15 13 11 11 13 14 15 16 16 15 14 15 14 16 15 14 14 14 11 11 11 13 13 12 12 12 11 11 11 13 14 13 13 11 10 9 8 8 7 7 7 8 9 10 13 14 12 11 11 11 7 10 14 16 16 15 14 13 12 10 9 8 9 15 17 18 17 9 8 9
11 10 10 10 9 11 12 12 13 12 10 10 10 10 10 11 12 12 13 14 13 15 16 15 14 14 13 13 15 13 15 14 13 11 10 11 12 11 11 11 11 11 12 13 13 13 12 12 11 10 8 8 8 8 7 7 6 6 6 7 7 6 8 9 6 4 8 7 10 10 7 10 10 14 15 15 14 15 13 11 7 6 6 6 8
8 9 9 9 10 11 12 13 13 12 11 10 10 10 11 11 11 12 12 13 14 14 15 14 15 13 12 13 13 17 17 12 13 12 12 12 12 12 11 11 12 12 13 14 13 12 11 11 12 11 9 8 8 9 8 7 8 7 7 6 5 4 4 3 2 2 4 5 5 7 9 6 6 6 5 1 2 4 3 3 3 2 2 3 5
11 10 8 9 10 12 12 12 13 11 11 11 11 11 11 12 12 12 13 14 15 15 14 14 13 12 12 12 11 11 12 13 13 14 11 9 11 13 14 14 12 10 12 13 12 11 11 12 12 12 10 9 9 9 11 10 11 16 12 8 5 4 5 3 4 6 3 1 2 3 4 2 0 2 4 4 4 6 6 5 6 5 5 5 5
9 8 9 10 10 10 12 13 12 11 11 12 12 12 11 11 11 11 13 15 15 14 14 13 12 12 12 12 11 11 12 12 12 13 14 13 12 19 16 14 13 23 29 29 23 14 15 13 13 13 11 7 8 11 20 28 22 16 8 5 4 8 6 5 6 9 4 2 2 3 3 2 1 3 5 5 5 5 6 6 6 7 6 6 6
10 9 9 10 10 10 11 12 13 11 12 11 12 12 11 11 11 12 12 14 15 14 13 12 13 12 14 14 12 12 12 12 12 12 12 13 17 19 21 24 24 26 28 29 28 30 31 29 20 14 16 24 25 24 23 23 30 31 24 11 4 1 3 5 6 1 4 3 4 4 4 4 4 4 5 4 4 5 5 6 6 5 6 6 6
Wind_Direction
353 57 64 79 80 81 86 85 81 61 53 65 68 58 59 62 50 26 355 353 7 357 346 355 339 330 339 315 289 281 288 283 279 275 257 252 261 259 260 257 255 256 254 239 239 242 243 249 249 252 236 229 234 243 248 255 250 246 258 257 262 267 271 253 259 251 279 283 270 271 274 260 261 265 259 250 244 240 236 237 240 245 246 243 240
51 47 35 45 51 67 64 62 72 77 49 59 62 61 54 43 44 14 2 5 360 352 313 321 263 270 261 271 265 270 286 281 275 275 257 258 259 258 257 255 253 251 252 239 242 238 248 247 245 249 238 234 235 244 249 248 255 252 248 265 234 249 262 253 259 227 266 259 292 298 282 263 248 249 250 257 251 244 235 230 232 234 240 237 240
62 57 48 47 45 43 67 71 61 73 66 63 59 54 37 31 21 10 5 4 346 336 323 308 280 276 197 262 243 274 249 244 243 255 259 252 258 253 251 252 249 254 250 243 237 242 240 245 249 246 242 237 243 246 245 251 245 249 243 245 269 240 254 246 247 205 265 268 262 304 295 316 282 260 262 260 255 250 238 235 233 231 233 231 226
67 67 63 58 58 63 76 69 71 65 61 52 41 43 31 21 11 8 360 355 347 326 308 284 271 273 263 253 278 225 263 282 265 273 272 269 267 254 251 242 240 243 248 243 239 239 236 237 245 245 245 232 232 244 246 247 246 247 244 244 242 273 254 262 213 224 219 250 289 217 267 352 308 289 316 282 221 233 210 228 229 231 228 234 219
69 51 39 44 53 56 75 84 74 67 58 57 48 36 29 15 7 14 359 347 330 319 309 297 305 305 295 307 290 304 297 287 310 291 269 257 261 265 253 236 234 235 240 240 235 239 238 238 240 244 246 241 231 238 244 244 246 244 243 246 236 242 265 257 249 204 223 205 225 292 305 294 233 288 337 291 18 319 285 264 259 223 232 238 223
82 72 58 64 80 73 62 60 64 62 51 32 48 25 25 13 10 6 357 343 334 320 312 317 310 297 300 299 298 288 284 286 279 271 278 273 255 247 257 243 240 240 240 239 235 236 239 237 239 242 244 245 235 236 242 249 243 239 234 234 244 236 245 261 263 230 218 221 223 229 224 247 287 272 352 295 38 219 269 276 267 260 247 279 279
51 50 43 60 72 74 58 58 61 59 22 350 12 16 16 17 10 3 360 348 335 331 329 330 324 315 299 285 276 273 277 268 249 257 253 259 259 265 258 256 239 238 246 240 241 239 240 241 239 237 239 241 240 235 237 237 240 236 237 228 233 240 234 251 250 252 253 240 230 237 245 250 253 272 258 293 293 301 19 262 286 272 277 277 275
66 54 56 71 77 80 76 52 38 23 349 358 16 21 17 9 7 6 354 348 340 337 336 334 330 327 321 310 296 288 277 282 283 276 267 260 262 257 259 257 248 234 238 237 235 234 233 237 235 235 234 237 234 231 234 238 241 242 233 233 236 231 229 239 251 240 235 257 217 237 246 248 250 247 246 245 264 284 276 261 259 273 274 257 248
57 60 62 71 78 73 66 44 18 14 17 17 15 13 15 10 8 353 351 349 340 339 339 336 336 330 327 320 314 304 300 297 294 292 288 282 275 267 258 257 258 251 238 238 235 232 231 231 231 230 232 234 231 234 235 235 233 237 236 233 231 233 229 234 244 245 232 245 244 242 248 247 248 241 245 237 244 257 267 262 269 257 241 262 249
53 66 75 72 65 58 49 49 32 18 12 18 21 17 12 2 354 353 353 348 338 339 339 334 332 332 328 324 316 312 310 304 300 295 289 283 278 274 267 267 260 256 246 239 239 234 234 233 232 232 233 235 233 234 238 237 234 233 233 232 231 233 232 231 233 239 235 241 236 238 246 254 256 254 241 234 244 236 258 263 239 268 274 249 205
58 61 55 64 76 55 36 36 13 11 13 24 20 13 4 2 355 358 349 344 342 339 338 335 334 334 329 322 317 312 312 312 312 307 299 290 280 272 266 264 267 261 257 250 238 239 238 234 232 233 231 231 232 232 233 233 235 235 236 235 235 233 232 232 239 242 238 238 236 230 235 235 237 243 242 229 229 244 254 261 259 238 254 274 252
55 55 35 27 27 25 26 17 6 3 19 21 15 9 4 358 357 352 347 347 343 341 342 339 338 333 328 324 321 319 318 319 316 311 309 304 300 296 295 292 281 270 266 263 256 244 243 240 234 235 233 227 228 227 228 228 232 234 234 232 235 235 236 237 237 243 239 240 238 231 235 236 238 241 245 237 229 245 250 262 263 248 258 247 267
48 36 35 20 29 26 20 3 2 15 20 17 10 6 359 355 352 349 346 349 344 344 341 336 332 329 328 331 331 328 323 319 316 313 313 310 308 306 305 301 296 291 277 267 263 252 247 247 238 232 231 227 228 226 227 228 230 229 228 230 230 231 230 230 235 236 233 234 238 233 234 236 240 241 243 243 242 244 244 261 260 238 254 266 247
28 17 19 16 17 16 12 3 12 18 16 13 6 3 355 351 351 350 346 346 344 341 337 329 331 337 342 337 330 325 321 319 320 319 319 316 314 310 308 303 300 294 293 284 270 260 253 246 243 237 230 228 225 224 225 225 225 227 229 228 229 229 229 231 234 237 236 237 237 239 236 236 239 237 238 239 241 239 241 244 264 253 222 261 273
353 10 359 8 15 10 9 11 18 18 9 7 1 355 352 350 350 351 347 347 346 342 338 342 347 342 336 329 324 335 339 339 334 332 331 327 322 316 311 308 303 300 295 292 286 277 268 258 246 242 236 230 227 226 226 226 225 228 230 232 233 232 230 231 234 234 236 236 233 233 239 238 239 236 234 238 237 235 238 237 239 260 261 249 262
322 345 3 13 11 5 5 18 21 8 3 1 2 358 354 355 356 355 350 346 346 344 345 345 338 334 326 331 350 345 335 329 323 323 322 321 319 318 315 312 310 308 309 310 305 296 285 274 262 251 246 239 233 229 227 226 225 227 234 233 236 231 233 233 234 234 236 235 234 234 236 241 237 234 234 237 235 234 233 229 226 238 254 268 259
324 12 24 4 355 345 8 28 18 9 7 7 3 359 358 357 355 348 346 345 345 342 339 336 330 326 338 355 346 337 329 325 324 320 319 318 316 314 312 313 318 333 334 330 324 319 308 291 280 272 261 251 247 239 231 227 225 226 230 232 235 233 234 235 234 234 235 235 235 232 232 237 236 232 236 234 234 233 230 229 222 230 234 251 264
29 18 9 354 334 348 35 28 18 12 8 5 1 357 0 356 350 345 346 345 342 341 338 335 330 345 349 342 334 328 321 318 319 319 314 313 312 312 318 328 337 332 327 322 321 320 317 311 302 289 277 265 254 247 238 235 233 233 234 236 237 235 236 239 237 236 237 235 234 234 231 235 233 228 231 231 230 228 229 227 228 231 226 237 248
21 10 358 335 347 26 43 20 11 13 9 3 356 357 356 351 353 353 345 339 337 334 331 330 349 350 338 333 328 323 319 316 315 312 313 309 316 331 335 334 333 335 329 324 321 316 314 312 309 304 298 290 280 268 259 252 244 246 244 245 242 237 237 239 236 234 238 236 235 236 231 233 228 226 229 230 229 227 227 227 230 228 228 229 242
12 358 347 354 14 35 20 14 9 6 3 359 357 356 353 353 354 345 337 337 331 331 335 350 348 336 330 327 320 315 314 315 320 331 333 342 344 334 331 332 330 328 327 326 322 319 317 312 306 301 296 290 281 271 260 255 253 252 251 249 246 240 241 242 241 233 235 234 233 234 231 230 227 221 226 224 225 227 225 225 225 227 230 224 227
16 7 6 13 27 19 12 13 6 4 1 359 358 351 348 357 347 344 342 336 336 345 354 345 339 334 329 324 321 318 324 343 347 340 336 336 336 338 335 331 328 327 327 320 316 315 315 314 311 303 296 291 287 282 274 265 258 256 252 249 248 244 244 245 242 241 234 231 231 231 231 228 221 223 225 222 224 222 222 225 223 224 230 217 213
16 9 15 20 19 12 9 10 3 359 355 357 349 346 357 353 347 340 336 333 346 354 344 337 335 325 320 318 321 341 350 345 343 345 336 333 337 336 331 326 327 323 324 318 313 308 305 305 305 308 309 305 296 287 278 271 265 260 257 252 251 248 247 247 242 243 235 230 228 228 230 226 219 225 224 226 223 221 220 221 223 221 227 227 210
11 18 23 21 16 12 4 3 355 352 354 351 345 355 357 349 343 336 330 344 357 343 337 333 326 323 320 335 352 343 334 334 336 333 333 336 333 328 327 324 323 323 319 316 312 310 304 299 296 296 296 295 294 293 288 281 275 270 268 263 257 253 249 247 244 241 236 228 227 226 228 221 219 223 226 227 224 225 220 222 226 220 227 228 223
13 20 26 21 13 5 359 352 350 354 354 352 348 358 353 345 339 333 340 353 346 338 333 329 323 318 345 355 342 332 330 333 331 328 332 335 329 323 323 321 319 316 315 309 304 300 298 294 291 287 285 284 282 277 278 276 276 275 272 269 264 257 251 249 245 241 235 227 224 227 227 219 217 223 226 225 224 223 222 225 226 226 225 228 227
354 12 17 15 6 359 357 350 352 354 355 350 348 357 346 341 339 341 344 345 338 332 329 324 318 342 350 341 332 329 330 331 330 330 330 328 324 322 320 318 317 316 315 310 306 308 314 319 316 313 307 294 277 271 270 270 269 268 267 267 264 260 255 250 245 239 230 225 224 225 224 217 217 226 228 227 222 220 221 222 225 223 226 225 227
7 9 18 5 359 352 353 356 358 357 350 341 349 347 340 338 342 343 338 335 332 329 325 319 343 352 342 337 332 332 331 330 330 330 327 324 323 321 318 316 320 319 318 316 316 317 315 311 310 306 300 300 298 287 275 272 272 271 269 266 262 258 255 250 244 236 229 223 224 225 223 217 219 222 228 226 223 224 220 222 223 225 225 223 225
9 16 6 354 353 356 357 356 358 351 345 344 345 341 342 342 340 339 337 334 331 329 322 334 354 345 339 333 332 332 330 329 327 325 323 323 322 319 318 317 316 314 313 311 308 307 307 305 300 298 296 293 288 284 282 278 273 268 264 262 259 256 252 248 240 234 226 224 223 224 221 217 220 221 224 225 223 225 225 226 221 220 221 222 221
20 9 1 355 354 354 353 355 351 349 345 346 344 341 345 342 339 340 339 335 331 324 325 349 347 341 334 332 330 329 328 325 323 322 322 321 320 320 318 315 314 311 309 306 306 304 302 297 292 291 286 283 278 275 272 269 263 259 260 261 260 255 249 243 238 230 225 222 221 220 218 218 218 220 220 222 220 226 221 228 219 211 213 212 217
13 359 356 355 355 353 352 353 348 346 345 344 341 342 342 339 339 339 335 333 328 323 333 350 342 337 334 330 329 328 324 324 323 322 321 320 319 317 316 313 310 308 306 304 302 303 298 295 292 291 292 291 290 297 301 293 284 272 264 262 258 253 245 241 234 229 224 221 219 216 216 218 217 222 221 221 220 218 216 223 216 207 208 206 212
2 355 359 359 357 354 351 346 343 343 343 340 339 341 340 340 339 337 335 332 330 328 338 341 336 333 330 328 326 325 324 324 323 322 320 319 318 316 312 309 308 306 303 300 299 295 294 296 297 299 302 304 299 294 291 288 281 274 266 256 248 242 239 234 231 228 223 218 214 209 215 218 222 224 226 230 230 228 225 213 212 204 207 208 212
355 355 2 359 355 351 347 342 340 342 342 338 335 336 336 338 339 337 334 332 329 329 333 336 330 329 328 327 325 323 323 322 321 319 319 317 315 310 305 304 303 300 299 299 298 296 296 296 296 293 290 287 285 281 285 283 281 276 272 266 243 234 229 227 225 220 220 214 211 209 205 217 220 227 231 233 234 239 241 239 229 215 206 204 210
347 5 5 354 353 349 345 340 340 339 340 339 335 334 338 338 338 334 331 329 329 330 331 328 324 325 326 324 320 319 318 317 320 318 316 310 308 306 304 303 302 302 300 298 294 294 292 293 290 290 290 289 287 289 290 290 284 281 278 273 249 223 220 222 218 214 215 210 209 206 203 202 211 212 218 231 240 244 245 247 249 247 234 221 214
352 3 359 357 352 347 339 338 337 338 341 337 333 331 338 337 335 333 328 329 329 329 326 323 325 325 324 321 321 320 319 317 317 314 312 309 307 306 306 304 304 303 299 296 298 299 296 294 292 292 293 291 291 293 298 295 292 288 283 280 262 212 214 213 211 211 210 211 207 204 204 204 204 218 222 220 224 238 247 251 254 255 267 263 235
354 3 353 352 346 342 337 334 332 335 341 334 330 335 335 335 333 332 333 331 329 329 328 325 326 327 325 323 321 321 318 317 315 315 312 312 308 307 307 300 298 300 299 301 299 297 295 294 291 292 292 293 290 296 299 295 291 287 282 280 269 202 209 205 208 207 209 211 206 204 208 209 203 208 212 217 216 223 228 238 247 258 262 276 285
350 353 353 347 342 335 334 334 334 339 336 333 334 339 333 332 334 330 332 329 326 326 324 326 324 323 323 323 321 319 316 315 315 314 312 309 309 307 305 306 307 303 301 299 297 297 295 292 291 289 290 290 289 299 301 300 296 290 289 289 279 198 207 205 207 205 206 209 206 207 208 211 207 203 206 211 212 218 219 223 232 239 248 257 247
346 352 347 343 342 339 335 333 333 336 335 338 339 338 334 329 327 326 324 325 323 320 319 320 320 320 319 320 319 319 316 316 314 311 312 311 309 308 308 308 303 299 294 297 296 293 294 292 290 288 286 295 300 305 306 305 300 297 298 299 273 187 198 206 207 207 207 207 206 205 206 211 208 208 211 222 222 213 213 223 225 230 244 249 251
348 354 345 341 339 337 334 331 334 335 336 341 338 334 329 328 326 325 323 322 320 319 319 321 318 320 320 319 319 316 314 314 313 312 311 310 311 309 306 304 303 304 304 302 296 294 290 290 288 288 302 303 298 303 305 305 303 301 301 302 255 184 204 198 200 200 202 203 205 202 204 207 210 210 216 224 233 241 213 214 219 224 229 237 249
341 348 341 344 340 336 331 333 331 331 335 338 336 333 331 327 326 325 325 321 321 320 321 321 318 318 317 318 316 314 312 312 313 312 309 309 306 302 300 306 305 308 305 301 295 293 291 289 297 306 299 301 303 304 306 307 307 306 303 305 290 209 197 194 194 199 196 204 208 211 208 207 210 212 220 228 236 240 243 222 202 214 216 225 239
346 346 342 344 340 332 325 325 327 328 335 338 333 329 327 324 325 325 322 320 323 324 325 323 320 319 317 316 315 313 311 311 311 309 308 307 306 304 303 302 301 299 302 303 303 303 307 308 302 297 303 307 305 303 305 306 305 305 306 304 303 252 205 199 188 192 191 196 206 221 222 216 211 219 225 232 238 240 231 232 212 205 215 220 221
344 338 347 345 331 329 328 331 333 332 333 334 331 328 327 326 324 323 319 324 325 323 320 316 315 316 316 315 315 314 312 310 309 306 304 300 300 303 304 306 305 304 305 313 314 310 306 301 299 298 296 299 299 298 299 301 302 302 303 304 293 285 230 192 188 196 194 201 206 208 225 231 231 226 228 233 239 241 234 220 222 216 214 224 207
337 332 350 341 334 329 328 330 332 334 335 334 331 329 326 324 321 321 323 325 321 318 317 317 318 315 316 315 313 313 312 307 302 299 301 301 303 305 308 308 308 311 312 310 308 305 302 300 298 296 292 294 292 291 293 300 300 301 299 299 300 289 280 222 201 205 202 204 205 213 210 228 236 243 243 240 238 239 238 219 214 222 215 218 203
330 334 344 339 334 329 327 328 333 335 334 334 335 332 327 325 325 325 326 322 320 318 317 317 317 316 314 313 313 313 309 307 306 306 303 302 303 304 303 306 307 308 306 305 304 303 298 296 298 295 291 290 288 290 290 296 299 298 296 292 290 280 268 221 226 202 207 206 206 205 208 220 232 242 249 251 252 252 243 229 216 224 226 224 211
335 339 345 340 332 330 329 327 330 332 334 333 332 328 325 324 324 323 323 321 320 320 320 318 315 316 317 317 315 314 313 310 309 306 305 308 311 312 308 306 307 308 307 304 303 301 303 300 298 294 290 285 284 284 291 293 295 296 294 290 285 280 269 255 208 209 211 217 209 215 216 226 235 244 251 253 253 252 249 236 230 226 222 222 216
335 338 336 338 332 327 326 328 330 333 333 333 332 326 327 326 325 325 322 321 320 321 319 316 316 317 316 318 317 315 311 310 308 309 312 312 313 312 309 310 308 307 306 306 305 304 302 299 299 300 295 290 287 286 290 294 295 293 292 290 285 281 273 260 238 206 212 213 217 222 222 237 246 252 254 254 251 250 249 250 240 226 222 221 207
334 337 336 337 333 328 327 326 330 333 333 332 332 328 326 327 325 326 323 323 323 322 321 320 321 318 318 316 315 315 313 311 313 315 315 315 315 316 316 314 311 309 306 307 304 305 301 297 298 296 296 298 299 299 291 292 294 292 293 292 289 284 278 269 262 211 207 216 222 230 237 248 254 254 253 251 249 248 246 243 244 241 232 217 207
333 332 336 334 328 324 326 325 327 333 332 331 330 331 326 323 323 324 323 325 323 321 322 322 321 320 318 317 318 317 314 315 316 315 313 310 311 315 314 311 311 307 307 306 309 308 301 301 300 296 298 301 306 305 299 292 288 290 290 288 289 291 287 275 260 241 232 235 240 247 254 257 257 253 251 249 251 250 250 244 239 237 233 223 200
333 330 330 330 330 328 328 329 327 330 331 328 326 324 318 319 323 324 326 325 322 320 318 321 320 319 319 320 321 320 321 321 317 316 313 313 314 314 312 309 309 311 314 314 312 306 306 313 318 314 307 311 308 307 302 292 288 283 272 270 274 279 283 283 276 264 262 253 242 244 250 253 252 252 248 245 244 245 244 242 241 232 229 218 197
324 323 329 325 329 330 328 329 327 328 330 328 325 323 324 325 324 327 324 322 320 321 322 319 319 321 322 322 320 320 322 319 320 320 322 323 321 317 315 315 316 318 318 315 310 311 322 328 335 332 320 312 307 303 290 287 293 281 272 260 240 237 240 227 272 305 288 222 206 232 251 263 270 270 265 51 81 81 96 95 88 89 122 160 184
327 328 332 330 330 329 327 325 323 325 326 326 325 326 327 328 328 328 327 326 324 323 320 319 321 323 323 321 317 317 318 318 316 318 315 315 315 320 319 316 315 312 319 314 313 330 335 337 337 337 326 308 303 291 286 287 286 279 273 254 235 229 217 211 234 249 256 97 176 221 222 249 314 181 100 87 78 83 73 71 74 69 73 70 73
323 326 329 329 330 328 326 325 323 326 327 326 325 326 326 326 326 327 329 328 328 325 324 325 327 325 323 321 322 320 320 318 319 322 321 317 316 327 327 326 326 334 335 336 350 348 349 351 347 344 340 312 271 275 288 301 325 349 353 3 220 200 197 213 231 246 240 118 103 88 66 71 46 60 68 62 64 69 71 63 46 54 52 61 55
326 328 329 330 327 326 324 325 326 327 324 322 320 322 324 326 327 327 329 328 330 328 326 325 328 327 325 326 323 322 320 319 322 323 322 323 324 328 335 339 342 343 343 347 355 357 357 0 359 350 346 355 9 7 9 25 30 30 35 25 5 122 137 196 223 182 62 69 98 83 63 49 39 56 66 60 53 60 64 72 62 53 45 49 54